QPF
0.00 0.00 0.00 0.00 0.00 0.00 0.00 0.00 0.02 0.18 0.19 0.02 0.00 0.00 0.00 0.00 0.00 0.00 0.00 0.00 0.00 0.00 0.00 0.00 0.00 0.00 0.00 0.00 0.00 0.00 0.01 0.05 0.08 0.14 0.09 0.05 0.05 0.18 0.21 0.14 0.22 0.16 0.09 0.05 0.06 0.04 0.02 0.02 0.04 0.02 0.06 0.18 0.33 0.06 0.01 0.00 0.00 0.00 0.00 0.00 0.00 0.00 0.00
0.00 0.00 0.00 0.00 0.00 0.00 0.00 0.01 0.02 0.07 0.03 0.02 0.00 0.00 0.00 0.00 0.00 0.00 0.00 0.00 0.00 0.00 0.00 0.00 0.00 0.00 0.00 0.00 0.00 0.00 0.01 0.02 0.04 0.08 0.20 0.21 0.29 0.07 0.09 0.14 0.15 0.21 0.14 0.09 0.06 0.03 0.03 0.01 0.01 0.02 0.02 0.03 0.30 0.06 0.01 0.01 0.01 0.01 0.00 0.00 0.00 0.00 0.00
0.00 0.00 0.00 0.00 0.00 0.00 0.00 0.01 0.00 0.00 0.00 0.00 0.00 0.00 0.00 0.00 0.00 0.00 0.00 0.00 0.00 0.00 0.00 0.00 0.00 0.00 0.00 0.00 0.00 0.00 0.01 0.03 0.03 0.17 0.14 0.12 0.10 0.12 0.13 0.12 0.14 0.18 0.18 0.18 0.15 0.08 0.03 0.01 0.01 0.00 0.00 0.01 0.03 0.03 0.01 0.00 0.01 0.00 0.00 0.00 0.00 0.00 0.00
0.00 0.00 0.00 0.00 0.00 0.00 0.00 0.00 0.00 0.00 0.00 0.00 0.00 0.00 0.00 0.00 0.00 0.00 0.00 0.00 0.00 0.00 0.00 0.00 0.00 0.00 0.00 0.00 0.00 0.02 0.02 0.02 0.02 0.05 0.12 0.17 0.12 0.26 0.29 0.28 0.22 0.17 0.14 0.13 0.15 0.08 0.10 0.02 0.01 0.00 0.00 0.00 0.00 0.00 0.01 0.00 0.00 0.00 0.00 0.00 0.00 0.00 0.00
0.00 0.00 0.00 0.00 0.00 0.00 0.00 0.00 0.00 0.00 0.00 0.00 0.00 0.00 0.00 0.00 0.00 0.00 0.00 0.00 0.00 0.00 0.00 0.00 0.00 0.00 0.00 0.00 0.18 0.13 0.08 0.15 0.20 0.09 0.09 0.10 0.12 0.17 0.23 0.24 0.24 0.20 0.18 0.15 0.13 0.09 0.06 0.02 0.01 0.00 0.00 0.00 0.01 0.00 0.00 0.00 0.00 0.06 0.00 0.00 0.00 0.00 0.00
0.00 0.00 0.00 0.00 0.00 0.00 0.00 0.00 0.00 0.00 0.00 0.00 0.00 0.00 0.00 0.00 0.00 0.00 0.00 0.00 0.00 0.00 0.00 0.00 0.00 0.00 0.01 0.01 0.17 0.08 0.06 0.03 0.01 0.02 0.04 0.06 0.03 0.07 0.10 0.14 0.18 0.23 0.19 0.16 0.13 0.12 0.10 0.06 0.04 0.01 0.00 0.00 0.00 0.00 0.00 0.01 0.02 0.06 0.07 0.00 0.00 0.00 0.00
0.00 0.00 0.00 0.00 0.00 0.00 0.00 0.00 0.00 0.00 0.00 0.00 0.00 0.00 0.00 0.00 0.00 0.00 0.00 0.00 0.00 0.00 0.00 0.00 0.00 0.00 0.00 0.01 0.00 0.00 0.01 0.01 0.10 0.10 0.12 0.07 0.12 0.08 0.24 0.19 0.22 0.23 0.22 0.17 0.17 0.15 0.10 0.08 0.06 0.02 0.01 0.00 0.00 0.00 0.00 0.00 0.01 0.02 0.04 0.07 0.01 0.01 0.01
0.00 0.00 0.00 0.00 0.00 0.00 0.00 0.00 0.00 0.00 0.00 0.00 0.00 0.00 0.00 0.00 0.00 0.00 0.00 0.00 0.00 0.00 0.00 0.00 0.00 0.00 0.00 0.01 0.01 0.00 0.00 0.00 0.01 0.02 0.02 0.02 0.04 0.07 0.09 0.11 0.12 0.21 0.18 0.19 0.21 0.19 0.14 0.11 0.07 0.02 0.01 0.00 0.01 0.00 0.01 0.00 0.00 0.00 0.00 0.00 0.02 0.02 0.02
0.00 0.00 0.00 0.00 0.00 0.00 0.00 0.00 0.00 0.00 0.00 0.00 0.00 0.00 0.00 0.00 0.00 0.00 0.00 0.00 0.00 0.00 0.00 0.00 0.00 0.00 0.00 0.00 0.00 0.01 0.00 0.00 0.01 0.02 0.01 0.02 0.03 0.06 0.09 0.14 0.20 0.16 0.07 0.09 0.18 0.25 0.19 0.15 0.14 0.06 0.07 0.01 0.00 0.02 0.01 0.01 0.01 0.00 0.00 0.00 0.01 0.02 0.01
0.00 0.00 0.00 0.00 0.00 0.00 0.00 0.00 0.00 0.00 0.00 0.00 0.00 0.00 0.00 0.00 0.00 0.00 0.00 0.00 0.00 0.00 0.00 0.00 0.00 0.00 0.04 0.09 0.02 0.01 0.01 0.01 0.06 0.01 0.00 0.01 0.02 0.05 0.08 0.11 0.13 0.11 0.12 0.06 0.08 0.14 0.24 0.24 0.14 0.11 0.11 0.03 0.01 0.00 0.01 0.02 0.01 0.00 0.00 0.00 0.00 0.00 0.00
0.00 0.00 0.00 0.00 0.00 0.00 0.00 0.00 0.00 0.00 0.00 0.00 0.00 0.00 0.00 0.00 0.00 0.00 0.00 0.00 0.00 0.00 0.00 0.00 0.00 0.00 0.01 0.02 0.01 0.01 0.01 0.01 0.02 0.01 0.00 0.00 0.01 0.11 0.24 0.20 0.19 0.15 0.08 0.04 0.04 0.13 0.21 0.27 0.23 0.11 0.05 0.04 0.02 0.00 0.00 0.00 0.00 0.00 0.00 0.00 0.00 0.00 0.00
0.00 0.00 0.00 0.00 0.00 0.00 0.00 0.00 0.00 0.00 0.00 0.00 0.00 0.00 0.00 0.00 0.00 0.00 0.00 0.00 0.00 0.00 0.00 0.00 0.01 0.00 0.01 0.02 0.01 0.01 0.01 0.01 0.01 0.01 0.00 0.00 0.01 0.07 0.09 0.10 0.24 0.21 0.21 0.11 0.04 0.07 0.15 0.30 0.24 0.22 0.11 0.09 0.06 0.03 0.01 0.00 0.00 0.00 0.00 0.00 0.00 0.00 0.00
0.00 0.00 0.00 0.00 0.00 0.00 0.00 0.00 0.00 0.00 0.00 0.00 0.00 0.00 0.00 0.00 0.00 0.00 0.00 0.00 0.00 0.00 0.00 0.00 0.00 0.00 0.00 0.00 0.00 0.00 0.00 0.09 0.10 0.01 0.01 0.00 0.01 0.05 0.07 0.05 0.10 0.09 0.12 0.16 0.10 0.04 0.06 0.13 0.15 0.22 0.17 0.14 0.14 0.24 0.12 0.14 0.02 0.00 0.00 0.00 0.00 0.00 0.00
0.00 0.00 0.00 0.00 0.00 0.00 0.00 0.00 0.00 0.00 0.00 0.00 0.00 0.00 0.00 0.00 0.00 0.00 0.00 0.00 0.00 0.00 0.00 0.00 0.00 0.00 0.00 0.00 0.00 0.00 0.00 0.00 0.01 0.04 0.06 0.01 0.01 0.03 0.04 0.04 0.03 0.07 0.06 0.07 0.09 0.08 0.05 0.05 0.12 0.21 0.24 0.16 0.14 0.13 0.17 0.22 0.19 0.33 0.10 0.00 0.00 0.00 0.00
0.00 0.00 0.00 0.00 0.00 0.00 0.00 0.00 0.00 0.00 0.00 0.00 0.00 0.00 0.00 0.00 0.00 0.00 0.00 0.00 0.00 0.00 0.00 0.00 0.00 0.00 0.00 0.00 0.00 0.00 0.00 0.00 0.00 0.01 0.15 0.34 0.33 0.10 0.36 0.14 0.19 0.03 0.03 0.02 0.06 0.10 0.09 0.08 0.16 0.13 0.18 0.12 0.13 0.12 0.12 0.18 0.10 0.12 0.02 0.01 0.00 0.00 0.20
0.00 0.00 0.00 0.00 0.00 0.00 0.00 0.00 0.00 0.00 0.00 0.00 0.00 0.00 0.00 0.00 0.00 0.00 0.00 0.00 0.00 0.00 0.00 0.00 0.00 0.00 0.00 0.00 0.00 0.00 0.00 0.02 0.01 0.02 0.04 0.13 0.17 0.11 0.12 0.04 0.02 0.02 0.08 0.10 0.05 0.06 0.08 0.13 0.13 0.09 0.10 0.15 0.19 0.12 0.21 0.25 0.07 0.04 0.03 0.02 0.03 0.00 0.05
0.00 0.00 0.00 0.00 0.00 0.00 0.00 0.00 0.00 0.00 0.00 0.00 0.00 0.00 0.00 0.00 0.00 0.00 0.00 0.00 0.00 0.00 0.00 0.00 0.00 0.00 0.00 0.00 0.00 0.00 0.00 0.19 0.20 0.11 0.19 0.19 0.19 0.09 0.03 0.09 0.12 0.03 0.05 0.07 0.07 0.10 0.10 0.11 0.13 0.22 0.33 0.30 0.20 0.17 0.15 0.05 0.08 0.14 0.23 0.16 0.02 0.00 0.01
0.00 0.00 0.00 0.00 0.00 0.00 0.00 0.00 0.00 0.00 0.00 0.00 0.00 0.00 0.00 0.00 0.00 0.00 0.00 0.00 0.00 0.00 0.00 0.00 0.00 0.00 0.00 0.01 0.00 0.00 0.00 0.13 0.18 0.14 0.20 0.07 0.04 0.07 0.21 0.02 0.15 0.21 0.18 0.12 0.12 0.10 0.14 0.13 0.14 0.18 0.14 0.14 0.15 0.13 0.10 0.14 0.06 0.05 0.06 0.05 0.30 0.20 0.35
0.00 0.00 0.00 0.00 0.00 0.00 0.00 0.00 0.00 0.00 0.00 0.00 0.00 0.00 0.00 0.00 0.00 0.00 0.00 0.00 0.00 0.00 0.00 0.00 0.00 0.00 0.01 0.00 0.00 0.00 0.01 0.05 0.08 0.15 0.09 0.04 0.09 0.03 0.05 0.07 0.09 0.04 0.04 0.07 0.13 0.05 0.05 0.10 0.14 0.19 0.15 0.17 0.15 0.10 0.10 0.11 0.09 0.10 0.06 0.13 0.07 0.04 0.45
0.00 0.00 0.00 0.00 0.00 0.00 0.00 0.00 0.00 0.00 0.00 0.00 0.00 0.00 0.00 0.00 0.00 0.00 0.00 0.00 0.00 0.00 0.00 0.00 0.00 0.00 0.00 0.00 0.00 0.01 0.09 0.01 0.03 0.01 0.01 0.03 0.05 0.13 0.14 0.12 0.10 0.07 0.13 0.06 0.03 0.02 0.03 0.04 0.06 0.08 0.11 0.10 0.07 0.06 0.06 0.04 0.05 0.09 0.08 0.12 0.07 0.09 0.12
0.00 0.00 0.00 0.00 0.00 0.00 0.00 0.00 0.00 0.00 0.00 0.00 0.00 0.00 0.00 0.00 0.00 0.00 0.00 0.00 0.00 0.00 0.00 0.00 0.00 0.00 0.00 0.00 0.01 0.09 0.07 0.01 0.01 0.00 0.00 0.01 0.09 0.33 0.15 0.25 0.20 0.22 0.16 0.13 0.05 0.03 0.02 0.02 0.02 0.09 0.11 0.16 0.12 0.13 0.19 0.09 0.06 0.06 0.07 0.09 0.05 0.05 0.04
0.00 0.00 0.00 0.00 0.00 0.00 0.00 0.00 0.00 0.00 0.00 0.00 0.00 0.00 0.00 0.00 0.00 0.00 0.00 0.00 0.00 0.00 0.00 0.00 0.00 0.00 0.01 0.00 0.01 0.01 0.04 0.03 0.20 0.11 0.08 0.11 0.12 0.09 0.09 0.13 0.16 0.21 0.17 0.17 0.10 0.05 0.04 0.05 0.12 0.12 0.06 0.21 0.19 0.08 0.17 0.08 0.11 0.05 0.05 0.06 0.06 0.05 0.09
0.00 0.00 0.00 0.00 0.00 0.00 0.00 0.00 0.00 0.00 0.00 0.00 0.00 0.00 0.00 0.00 0.00 0.00 0.00 0.00 0.00 0.00 0.00 0.00 0.00 0.00 0.00 0.00 0.01 0.02 0.01 0.17 0.15 0.11 0.10 0.21 0.14 0.10 0.19 0.17 0.16 0.13 0.09 0.06 0.08 0.08 0.14 0.23 0.16 0.11 0.24 0.25 0.19 0.12 0.14 0.12 0.11 0.06 0.03 0.03 0.03 0.04 0.04
0.00 0.00 0.00 0.00 0.00 0.00 0.00 0.00 0.00 0.00 0.00 0.00 0.00 0.00 0.00 0.00 0.00 0.00 0.00 0.00 0.00 0.00 0.00 0.01 0.00 0.00 0.01 0.02 0.02 0.05 0.02 0.01 0.01 0.02 0.03 0.04 0.03 0.08 0.11 0.07 0.11 0.15 0.13 0.10 0.06 0.04 0.05 0.12 0.14 0.14 0.16 0.20 0.23 0.23 0.19 0.23 0.15 0.11 0.07 0.03 0.03 0.03 0.03
0.00 0.00 0.00 0.00 0.00 0.00 0.00 0.00 0.00 0.00 0.00 0.00 0.00 0.00 0.00 0.00 0.00 0.00 0.00 0.01 0.01 0.01 0.02 0.02 0.00 0.00 0.00 0.00 0.00 0.01 0.01 0.01 0.01 0.01 0.01 0.02 0.03 0.02 0.02 0.05 0.12 0.13 0.11 0.10 0.07 0.07 0.09 0.11 0.06 0.07 0.09 0.13 0.19 0.20 0.16 0.20 0.19 0.17 0.09 0.09 0.03 0.03 0.02
0.00 0.00 0.00 0.00 0.00 0.00 0.00 0.00 0.00 0.00 0.00 0.00 0.00 0.00 0.00 0.00 0.00 0.00 0.00 0.01 0.03 0.02 0.02 0.02 0.01 0.00 0.00 0.00 0.00 0.00 0.01 0.01 0.02 0.02 0.03 0.03 0.03 0.03 0.02 0.02 0.03 0.03 0.03 0.06 0.08 0.11 0.13 0.16 0.11 0.07 0.15 0.15 0.13 0.14 0.11 0.12 0.15 0.17 0.25 0.15 0.06 0.06 0.16
0.00 0.00 0.00 0.00 0.00 0.00 0.00 0.00 0.00 0.00 0.00 0.00 0.00 0.00 0.00 0.00 0.00 0.00 0.02 0.05 0.05 0.01 0.03 0.04 0.01 0.01 0.00 0.00 0.00 0.01 0.01 0.01 0.01 0.01 0.02 0.03 0.03 0.04 0.04 0.03 0.02 0.02 0.02 0.02 0.05 0.07 0.11 0.19 0.19 0.22 0.17 0.17 0.15 0.12 0.07 0.06 0.07 0.18 0.15 0.22 0.19 0.24 0.37
0.00 0.00 0.00 0.00 0.00 0.00 0.00 0.00 0.00 0.00 0.00 0.00 0.00 0.00 0.00 0.00 0.00 0.00 0.01 0.02 0.06 0.07 0.06 0.02 0.01 0.01 0.01 0.01 0.02 0.02 0.03 0.02 0.03 0.03 0.04 0.03 0.03 0.04 0.04 0.03 0.03 0.02 0.03 0.05 0.09 0.14 0.11 0.09 0.19 0.26 0.25 0.18 0.16 0.14 0.13 0.12 0.09 0.16 0.17 0.35 0.21 0.29 0.33
0.00 0.00 0.00 0.00 0.00 0.00 0.00 0.00 0.00 0.00 0.00 0.00 0.00 0.00 0.00 0.00 0.00 0.00 0.00 0.00 0.01 0.01 0.02 0.00 0.00 0.00 0.00 0.00 0.00 0.01 0.02 0.03 0.05 0.06 0.05 0.04 0.06 0.09 0.10 0.10 0.08 0.05 0.04 0.03 0.10 0.18 0.20 0.22 0.24 0.27 0.25 0.24 0.17 0.15 0.18 0.20 0.17 0.18 0.19 0.27 0.24 0.18 0.14
0.00 0.00 0.00 0.00 0.00 0.00 0.00 0.00 0.00 0.00 0.00 0.00 0.00 0.00 0.00 0.00 0.00 0.00 0.00 0.00 0.00 0.00 0.00 0.00 0.00 0.00 0.00 0.00 0.00 0.00 0.01 0.02 0.03 0.05 0.08 0.15 0.29 0.18 0.13 0.17 0.11 0.08 0.10 0.12 0.16 0.15 0.14 0.18 0.26 0.28 0.28 0.28 0.24 0.18 0.22 0.14 0.15 0.12 0.09 0.08 0.12 0.37 0.17
0.00 0.00 0.00 0.00 0.00 0.00 0.00 0.00 0.00 0.00 0.00 0.00 0.00 0.00 0.00 0.00 0.00 0.00 0.00 0.00 0.00 0.00 0.00 0.00 0.00 0.00 0.00 0.00 0.00 0.00 0.00 0.01 0.02 0.05 0.11 0.12 0.14 0.15 0.14 0.11 0.10 0.12 0.16 0.42 0.32 0.10 0.07 0.07 0.11 0.17 0.21 0.22 0.31 0.26 0.27 0.27 0.36 0.18 0.18 0.12 0.15 0.22 0.19
0.00 0.00 0.00 0.00 0.00 0.00 0.00 0.00 0.00 0.00 0.00 0.00 0.00 0.00 0.00 0.00 0.00 0.00 0.00 0.00 0.00 0.00 0.00 0.00 0.00 0.00 0.00 0.00 0.00 0.00 0.00 0.00 0.00 0.02 0.06 0.12 0.13 0.12 0.11 0.12 0.16 0.19 0.25 0.26 0.26 0.24 0.22 0.24 0.35 0.26 0.20 0.23 0.29 0.23 0.21 0.18 0.20 0.33 0.25 0.12 0.09 0.29 0.24
0.00 0.00 0.00 0.00 0.00 0.00 0.00 0.00 0.00 0.00 0.00 0.00 0.00 0.00 0.00 0.00 0.00 0.00 0.00 0.00 0.00 0.00 0.00 0.00 0.00 0.00 0.00 0.00 0.00 0.00 0.00 0.00 0.00 0.01 0.02 0.04 0.06 0.09 0.08 0.10 0.20 0.28 0.34 0.29 0.27 0.25 0.18 0.16 0.17 0.32 0.41 0.42 0.33 0.28 0.26 0.23 0.20 0.19 0.29 0.29 0.30 0.25 0.22
0.00 0.00 0.00 0.00 0.00 0.00 0.00 0.00 0.00 0.00 0.00 0.00 0.00 0.00 0.00 0.00 0.00 0.00 0.00 0.00 0.00 0.00 0.00 0.00 0.00 0.00 0.00 0.00 0.00 0.00 0.00 0.00 0.00 0.00 0.00 0.00 0.01 0.03 0.06 0.09 0.13 0.18 0.16 0.11 0.10 0.10 0.10 0.10 0.14 0.16 0.15 0.13 0.19 0.19 0.22 0.19 0.24 0.13 0.23 0.24 0.15 0.22 0.13
0.00 0.00 0.00 0.00 0.00 0.00 0.00 0.00 0.00 0.00 0.00 0.00 0.00 0.00 0.00 0.00 0.00 0.00 0.00 0.00 0.00 0.00 0.00 0.00 0.00 0.00 0.00 0.00 0.00 0.00 0.00 0.00 0.00 0.00 0.00 0.00 0.00 0.01 0.01 0.02 0.08 0.10 0.06 0.04 0.03 0.04 0.06 0.08 0.10 0.12 0.14 0.13 0.12 0.13 0.14 0.10 0.11 0.11 0.08 0.07 0.08 0.14 0.16
0.00 0.00 0.00 0.00 0.00 0.00 0.00 0.00 0.00 0.00 0.00 0.00 0.00 0.00 0.00 0.00 0.00 0.00 0.00 0.00 0.00 0.00 0.00 0.00 0.00 0.00 0.00 0.00 0.00 0.00 0.00 0.00 0.00 0.00 0.00 0.00 0.00 0.00 0.01 0.01 0.01 0.02 0.04 0.04 0.04 0.04 0.05 0.05 0.04 0.04 0.05 0.07 0.08 0.09 0.10 0.11 0.10 0.08 0.05 0.05 0.05 0.06 0.06
0.00 0.00 0.00 0.00 0.00 0.00 0.00 0.00 0.00 0.00 0.00 0.00 0.00 0.00 0.00 0.00 0.00 0.00 0.00 0.00 0.00 0.00 0.00 0.00 0.00 0.00 0.00 0.00 0.00 0.00 0.00 0.00 0.00 0.00 0.00 0.00 0.00 0.00 0.00 0.00 0.00 0.00 0.00 0.00 0.01 0.01 0.01 0.03 0.06 0.07 0.07 0.06 0.06 0.06 0.06 0.06 0.06 0.06 0.07 0.07 0.06 0.06 0.05
MSLP
1015.95 1016.03 1015.91 1015.83 1015.79 1015.71 1015.75 1015.67 1015.39 1015.07 1014.95 1014.95 1014.79 1014.79 1014.87 1014.95 1015.11 1015.19 1015.23 1015.27 1015.31 1015.31 1015.39 1015.51 1015.59 1015.55 1015.51 1015.47 1015.55 1015.63 1015.71 1015.83 1016.03 1016.35 1016.31 1016.15 1016.47 1016.47 1016.35 1016.51 1016.59 1016.55 1016.39 1016.39 1016.67 1016.99 1017.03 1017.63 1017.59 1017.39 1017.31 1017.27 1017.35 1017.35 1017.43 1017.67 1017.95 1018.11 1018.35 1018.51 1018.67 1018.83 1018.99
1015.79 1015.87 1015.79 1015.75 1015.67 1015.63 1015.79 1015.75 1015.51 1015.23 1014.95 1014.87 1014.91 1014.87 1014.79 1014.79 1014.87 1014.95 1014.99 1015.03 1015.07 1015.07 1015.11 1015.19 1015.19 1015.23 1015.27 1015.31 1015.35 1015.39 1015.39 1015.43 1015.51 1015.71 1015.91 1015.83 1015.95 1015.99 1016.19 1016.23 1016.31 1016.47 1016.51 1016.39 1016.59 1016.83 1017.15 1017.15 1017.19 1017.31 1017.31 1017.27 1017.39 1017.43 1017.35 1017.47 1017.67 1017.91 1018.07 1018.19 1018.35 1018.55 1018.79
1015.75 1015.75 1015.75 1015.71 1015.71 1015.71 1015.71 1015.75 1015.59 1015.43 1015.19 1014.95 1014.75 1014.83 1014.83 1014.71 1014.71 1014.79 1014.83 1014.83 1014.83 1014.83 1014.91 1014.99 1015.03 1015.07 1015.03 1015.07 1015.03 1015.03 1014.99 1015.07 1014.99 1015.11 1015.31 1015.31 1015.35 1015.35 1015.43 1015.55 1016.15 1016.39 1016.59 1016.55 1016.55 1016.71 1016.75 1016.55 1016.63 1016.99 1016.95 1017.23 1017.47 1017.23 1017.23 1017.47 1017.59 1017.79 1017.95 1018.11 1018.27 1018.43 1018.63
1015.71 1015.83 1015.91 1015.95 1015.87 1015.87 1015.83 1015.91 1015.87 1015.63 1015.43 1015.23 1014.99 1014.83 1014.79 1014.71 1014.71 1014.75 1014.79 1014.75 1014.71 1014.71 1014.75 1014.87 1014.91 1014.91 1014.83 1014.83 1014.75 1014.67 1014.67 1014.71 1014.71 1014.75 1014.75 1014.75 1014.83 1015.15 1015.27 1015.31 1015.43 1015.59 1015.83 1015.95 1015.95 1016.27 1016.43 1016.47 1016.55 1016.63 1016.63 1016.75 1016.71 1017.15 1017.03 1017.15 1017.43 1017.59 1017.79 1017.95 1018.15 1018.27 1018.43
1015.67 1015.79 1015.95 1016.03 1016.07 1016.07 1016.03 1015.95 1015.91 1015.79 1015.63 1015.47 1015.35 1015.11 1014.87 1014.75 1014.83 1014.83 1014.75 1014.67 1014.63 1014.67 1014.71 1014.71 1014.71 1014.63 1014.59 1014.55 1014.47 1014.43 1014.43 1014.35 1014.35 1014.39 1014.39 1014.39 1014.47 1014.63 1014.79 1014.91 1014.95 1014.99 1015.07 1015.11 1015.11 1015.39 1015.91 1015.87 1015.79 1015.99 1016.31 1016.43 1016.79 1016.75 1016.79 1017.11 1017.23 1017.51 1017.67 1017.79 1017.87 1018.03 1018.19
1015.63 1015.79 1015.91 1015.99 1016.07 1016.07 1015.95 1015.91 1015.91 1015.91 1015.71 1015.63 1015.39 1015.27 1014.95 1014.79 1014.83 1014.91 1014.83 1014.79 1014.67 1014.63 1014.59 1014.59 1014.47 1014.39 1014.31 1014.23 1014.15 1014.11 1014.11 1014.11 1014.11 1014.23 1014.31 1014.47 1014.43 1014.43 1014.51 1014.51 1014.51 1014.67 1014.71 1014.51 1014.71 1014.99 1015.31 1015.55 1015.75 1015.99 1015.87 1015.83 1016.39 1016.67 1016.75 1016.99 1017.27 1017.31 1017.31 1017.43 1017.59 1017.79 1017.99
1015.75 1015.87 1015.91 1016.03 1016.07 1016.03 1015.99 1015.95 1015.91 1015.83 1015.79 1015.63 1015.43 1015.23 1014.87 1014.75 1014.79 1014.71 1014.67 1014.63 1014.63 1014.59 1014.51 1014.39 1014.27 1014.15 1014.11 1014.03 1013.95 1013.87 1013.79 1013.67 1013.75 1013.91 1013.95 1013.99 1014.19 1014.15 1014.03 1014.11 1014.07 1014.07 1014.23 1014.23 1014.35 1014.63 1015.03 1015.35 1015.63 1015.79 1016.15 1016.15 1016.15 1016.51 1016.63 1016.83 1016.95 1017.35 1017.31 1017.23 1017.35 1017.55 1017.75
1015.91 1015.99 1016.07 1016.07 1016.11 1016.07 1015.95 1015.91 1015.83 1015.71 1015.67 1015.43 1015.27 1014.99 1014.79 1014.75 1014.67 1014.59 1014.51 1014.51 1014.47 1014.39 1014.23 1014.15 1014.03 1013.95 1013.83 1013.79 1013.67 1013.59 1013.51 1013.47 1013.55 1013.59 1013.63 1013.71 1013.71 1013.67 1013.67 1013.63 1013.59 1013.71 1013.87 1013.87 1014.03 1014.23 1014.43 1014.67 1014.83 1015.19 1015.63 1016.23 1016.47 1016.47 1016.67 1016.67 1016.83 1016.87 1016.87 1017.11 1017.15 1017.35 1017.51
1015.99 1015.99 1016.03 1016.07 1016.07 1016.03 1015.95 1015.87 1015.79 1015.63 1015.51 1015.35 1015.15 1014.99 1014.83 1014.75 1014.63 1014.55 1014.43 1014.35 1014.23 1014.11 1013.95 1013.83 1013.71 1013.63 1013.55 1013.51 1013.39 1013.31 1013.27 1013.19 1013.27 1013.31 1013.31 1013.35 1013.35 1013.35 1013.31 1013.19 1013.31 1013.39 1013.43 1013.59 1013.75 1013.91 1014.07 1014.23 1014.43 1014.75 1015.07 1015.55 1015.95 1016.59 1016.55 1016.75 1016.75 1016.79 1016.47 1016.99 1017.07 1017.11 1017.23
1015.99 1016.15 1016.23 1016.19 1016.07 1015.95 1015.87 1015.83 1015.79 1015.67 1015.51 1015.35 1015.15 1014.95 1014.83 1014.67 1014.55 1014.47 1014.35 1014.15 1014.03 1013.91 1013.79 1013.63 1013.51 1013.39 1013.31 1013.23 1013.11 1013.03 1013.03 1012.91 1012.99 1013.03 1012.99 1012.99 1012.95 1012.95 1012.91 1013.03 1013.15 1013.15 1013.23 1013.27 1013.47 1013.71 1013.87 1014.03 1014.15 1014.35 1014.63 1015.07 1015.19 1015.75 1016.39 1016.59 1016.59 1016.71 1016.55 1016.47 1016.99 1016.99 1016.99
1016.23 1016.23 1016.23 1016.19 1016.11 1015.99 1015.87 1015.79 1015.75 1015.67 1015.55 1015.35 1015.19 1014.99 1014.83 1014.63 1014.51 1014.35 1014.27 1014.07 1013.91 1013.75 1013.59 1013.43 1013.31 1013.15 1013.07 1012.99 1012.83 1012.75 1012.63 1012.63 1012.75 1012.71 1012.67 1012.63 1012.63 1012.63 1012.79 1013.03 1012.99 1013.03 1013.03 1013.11 1013.27 1013.39 1013.59 1013.75 1014.03 1014.23 1014.51 1014.75 1015.03 1015.31 1015.63 1016.19 1016.31 1016.19 1016.39 1016.31 1016.39 1016.83 1016.83
1016.27 1016.23 1016.15 1016.07 1016.03 1015.99 1015.95 1015.87 1015.83 1015.71 1015.55 1015.35 1015.15 1014.99 1014.79 1014.59 1014.43 1014.27 1014.11 1013.95 1013.75 1013.59 1013.39 1013.23 1013.03 1012.91 1012.83 1012.79 1012.67 1012.59 1012.47 1012.47 1012.47 1012.47 1012.35 1012.39 1012.31 1012.47 1012.75 1012.83 1012.87 1012.91 1012.91 1012.99 1013.07 1013.15 1013.35 1013.55 1013.79 1014.03 1014.31 1014.59 1014.95 1015.19 1015.23 1015.39 1016.15 1015.91 1015.79 1016.31 1016.11 1016.11 1016.47
1016.35 1016.35 1016.27 1016.19 1016.11 1016.03 1015.99 1015.95 1015.87 1015.71 1015.55 1015.31 1015.15 1014.95 1014.75 1014.55 1014.35 1014.15 1013.91 1013.79 1013.59 1013.39 1013.19 1012.99 1012.83 1012.71 1012.59 1012.55 1012.47 1012.43 1012.39 1012.35 1012.35 1012.27 1012.19 1012.15 1012.19 1012.27 1012.39 1012.51 1012.63 1012.75 1012.79 1012.91 1012.99 1013.07 1013.19 1013.35 1013.55 1013.87 1014.11 1014.43 1014.75 1015.07 1015.43 1015.63 1015.63 1016.03 1015.71 1015.75 1015.99 1016.15 1016.23
1016.43 1016.35 1016.27 1016.19 1016.19 1016.19 1016.11 1016.03 1015.95 1015.83 1015.59 1015.35 1015.15 1014.91 1014.71 1014.51 1014.27 1014.07 1013.83 1013.63 1013.47 1013.27 1013.07 1012.87 1012.63 1012.51 1012.43 1012.31 1012.23 1012.15 1012.11 1012.11 1012.11 1012.03 1012.11 1012.15 1012.11 1012.19 1012.19 1012.31 1012.31 1012.43 1012.63 1012.75 1012.83 1012.95 1013.07 1013.19 1013.35 1013.63 1013.91 1014.19 1014.55 1014.67 1014.91 1015.35 1015.67 1015.91 1015.95 1015.75 1015.95 1016.11 1016.19
1016.51 1016.51 1016.51 1016.51 1016.51 1016.43 1016.35 1016.27 1016.15 1015.95 1015.75 1015.39 1015.15 1014.99 1014.75 1014.51 1014.27 1014.03 1013.79 1013.55 1013.35 1013.19 1012.95 1012.71 1012.43 1012.31 1012.23 1012.15 1011.99 1011.83 1011.79 1011.79 1011.79 1011.79 1011.83 1011.95 1011.91 1011.99 1012.27 1012.23 1012.07 1012.15 1012.27 1012.47 1012.55 1012.75 1012.87 1013.03 1013.23 1013.47 1013.71 1014.03 1014.39 1014.63 1014.75 1015.31 1015.59 1015.71 1015.95 1015.91 1016.03 1016.11 1016.31
1016.79 1016.75 1016.79 1016.75 1016.71 1016.71 1016.63 1016.47 1016.23 1016.03 1015.75 1015.43 1015.19 1015.03 1014.87 1014.63 1014.39 1014.07 1013.79 1013.51 1013.31 1013.15 1012.87 1012.59 1012.31 1012.15 1012.03 1011.99 1011.87 1011.67 1011.55 1011.55 1011.59 1011.63 1011.71 1011.79 1011.79 1011.91 1012.15 1012.11 1011.99 1011.99 1012.07 1012.39 1012.47 1012.55 1012.67 1012.87 1013.03 1013.23 1013.51 1013.75 1014.15 1014.43 1014.67 1014.71 1015.07 1015.47 1015.71 1015.99 1015.91 1016.19 1016.19
1017.19 1017.19 1017.15 1017.15 1017.07 1016.95 1016.75 1016.55 1016.27 1016.07 1015.79 1015.51 1015.35 1015.19 1015.07 1014.99 1014.79 1014.55 1014.23 1013.91 1013.51 1013.15 1012.83 1012.51 1012.23 1012.03 1011.91 1011.83 1011.71 1011.59 1011.43 1011.39 1011.43 1011.47 1011.51 1011.59 1011.79 1012.03 1012.11 1012.03 1011.91 1011.99 1012.07 1012.31 1012.43 1012.55 1012.63 1012.75 1012.91 1013.11 1013.35 1013.59 1013.91 1014.23 1014.31 1014.47 1014.67 1014.99 1015.39 1015.75 1015.99 1016.07 1016.11
1017.51 1017.47 1017.47 1017.39 1017.27 1017.07 1016.83 1016.59 1016.39 1016.19 1015.95 1015.75 1015.59 1015.47 1015.39 1015.31 1015.15 1014.91 1014.63 1014.31 1013.95 1013.59 1013.15 1012.63 1012.31 1012.11 1011.95 1011.79 1011.67 1011.55 1011.35 1011.27 1011.31 1011.39 1011.43 1011.55 1011.63 1011.79 1011.83 1011.83 1011.99 1012.07 1012.15 1012.27 1012.39 1012.47 1012.51 1012.63 1012.71 1012.87 1013.07 1013.23 1013.59 1013.87 1014.11 1014.39 1014.51 1014.51 1014.87 1015.11 1015.51 1015.55 1015.79
1017.79 1017.71 1017.67 1017.63 1017.47 1017.23 1017.03 1016.83 1016.67 1016.47 1016.31 1016.19 1015.95 1015.79 1015.67 1015.59 1015.43 1015.23 1014.95 1014.63 1014.27 1013.95 1013.59 1013.15 1012.71 1012.39 1012.11 1011.91 1011.71 1011.55 1011.43 1011.39 1011.31 1011.31 1011.35 1011.43 1011.55 1011.63 1011.75 1011.87 1011.99 1012.03 1012.11 1012.19 1012.27 1012.35 1012.35 1012.39 1012.51 1012.75 1012.99 1013.23 1013.39 1013.63 1013.95 1014.23 1014.31 1014.43 1014.55 1014.95 1015.23 1015.75 1015.79
1018.03 1018.07 1017.95 1017.83 1017.67 1017.51 1017.35 1017.23 1017.11 1016.99 1016.79 1016.67 1016.43 1016.27 1016.07 1015.91 1015.67 1015.39 1015.07 1014.79 1014.47 1014.23 1013.87 1013.51 1013.19 1012.91 1012.63 1012.23 1012.03 1011.83 1011.63 1011.51 1011.43 1011.43 1011.51 1011.59 1011.67 1011.71 1011.75 1011.83 1011.83 1011.95 1012.11 1012.23 1012.27 1012.27 1012.31 1012.39 1012.43 1012.59 1012.79 1012.99 1013.23 1013.59 1013.87 1014.03 1014.19 1014.35 1014.55 1015.07 1015.35 1015.39 1015.67
1018.39 1018.39 1018.27 1018.11 1017.95 1017.83 1017.71 1017.59 1017.51 1017.35 1017.15 1016.99 1016.79 1016.67 1016.47 1016.23 1015.95 1015.59 1015.27 1014.95 1014.71 1014.43 1014.11 1013.83 1013.51 1013.31 1013.03 1012.51 1012.15 1011.95 1011.67 1011.51 1011.47 1011.55 1011.63 1011.75 1011.87 1011.99 1011.91 1011.95 1011.99 1011.99 1012.03 1012.11 1012.15 1012.19 1012.27 1012.39 1012.43 1012.55 1012.67 1012.83 1013.15 1013.47 1013.79 1014.03 1014.31 1014.47 1014.75 1015.11 1015.15 1015.43 1015.47
1018.55 1018.55 1018.47 1018.35 1018.23 1018.07 1017.99 1017.91 1017.79 1017.63 1017.51 1017.35 1017.15 1016.99 1016.75 1016.43 1016.15 1015.83 1015.43 1015.15 1014.87 1014.63 1014.35 1014.11 1013.79 1013.55 1013.03 1012.47 1012.19 1012.07 1011.87 1011.71 1011.67 1011.67 1011.67 1011.79 1011.95 1011.99 1011.95 1011.91 1011.91 1011.95 1011.87 1011.91 1012.03 1012.11 1012.15 1012.15 1012.27 1012.51 1012.71 1012.87 1013.15 1013.39 1013.59 1013.79 1014.07 1014.43 1014.63 1014.87 1015.15 1015.39 1015.63
1018.71 1018.71 1018.67 1018.59 1018.51 1018.35 1018.27 1018.23 1018.11 1018.03 1017.87 1017.71 1017.47 1017.23 1016.95 1016.67 1016.43 1016.15 1015.83 1015.55 1015.31 1015.03 1014.91 1014.59 1014.27 1013.55 1013.19 1012.71 1012.39 1012.39 1012.31 1012.23 1012.11 1011.99 1011.83 1011.87 1011.99 1012.11 1012.19 1012.03 1011.87 1011.75 1011.67 1011.67 1011.83 1012.03 1012.03 1012.03 1012.07 1012.23 1012.59 1012.87 1013.03 1013.31 1013.55 1013.75 1013.99 1014.11 1014.31 1014.59 1014.87 1015.19 1015.51
1018.95 1018.95 1018.91 1018.83 1018.75 1018.67 1018.63 1018.59 1018.51 1018.39 1018.19 1018.03 1017.79 1017.55 1017.27 1017.03 1016.79 1016.43 1016.27 1016.19 1016.03 1015.79 1015.63 1015.47 1015.03 1014.19 1013.83 1013.47 1013.27 1013.35 1013.35 1013.27 1013.07 1012.99 1012.91 1012.79 1012.63 1012.55 1012.47 1012.35 1012.27 1011.99 1011.75 1011.67 1011.95 1012.23 1012.19 1011.99 1012.11 1012.31 1012.51 1012.71 1012.79 1012.91 1013.23 1013.63 1013.83 1013.99 1014.27 1014.31 1014.47 1014.87 1014.91
1019.23 1019.23 1019.19 1019.15 1019.11 1019.07 1019.07 1018.99 1018.91 1018.79 1018.59 1018.39 1018.15 1017.91 1017.67 1017.51 1017.15 1016.87 1016.75 1016.67 1016.67 1016.47 1016.23 1016.07 1015.67 1015.15 1014.63 1014.35 1014.15 1014.07 1013.99 1013.95 1013.87 1013.83 1013.75 1013.71 1013.59 1013.23 1012.91 1012.87 1012.83 1012.59 1012.23 1012.07 1012.23 1012.35 1012.47 1012.31 1012.27 1012.43 1012.59 1012.91 1013.11 1013.15 1013.11 1013.15 1013.39 1013.87 1014.11 1014.31 1014.47 1014.43 1014.43
1019.55 1019.55 1019.51 1019.51 1019.47 1019.47 1019.43 1019.35 1019.23 1019.11 1018.99 1018.87 1018.59 1018.35 1018.23 1017.95 1017.75 1017.47 1017.31 1017.23 1017.23 1016.99 1016.75 1016.63 1016.23 1015.87 1015.47 1015.11 1014.83 1014.59 1014.59 1014.51 1014.35 1014.39 1014.35 1014.35 1014.19 1014.03 1013.59 1013.19 1013.15 1013.03 1012.87 1012.55 1012.55 1012.63 1012.75 1012.87 1012.91 1012.95 1013.11 1013.39 1013.71 1013.87 1013.83 1013.63 1013.39 1013.39 1013.59 1013.91 1014.11 1014.35 1014.47
1019.87 1019.83 1019.79 1019.79 1019.75 1019.75 1019.71 1019.71 1019.59 1019.47 1019.35 1019.15 1018.91 1018.79 1018.59 1018.39 1018.23 1018.07 1017.99 1017.83 1017.75 1017.59 1017.43 1017.31 1016.79 1016.35 1016.03 1015.71 1015.47 1015.19 1015.11 1014.99 1014.99 1014.91 1014.87 1014.83 1014.67 1014.55 1014.35 1013.99 1013.83 1013.79 1013.63 1013.39 1013.11 1013.03 1013.11 1013.19 1013.35 1013.63 1013.95 1014.27 1014.51 1014.43 1014.27 1014.19 1013.91 1013.63 1013.59 1013.75 1013.99 1014.31 1014.51
1020.19 1020.11 1020.07 1020.03 1020.07 1020.07 1020.07 1019.99 1019.91 1019.83 1019.67 1019.51 1019.39 1019.27 1019.15 1019.03 1018.87 1018.75 1018.59 1018.43 1018.31 1018.19 1018.23 1017.87 1017.43 1016.99 1016.59 1016.27 1016.07 1015.87 1015.71 1015.51 1015.47 1015.47 1015.35 1015.15 1015.11 1015.07 1014.99 1014.79 1014.59 1014.47 1014.23 1014.07 1013.87 1013.59 1013.59 1013.75 1014.03 1014.35 1014.59 1014.95 1015.11 1015.19 1015.15 1015.07 1014.83 1014.43 1014.11 1014.07 1014.23 1014.47 1014.75
1020.47 1020.47 1020.43 1020.43 1020.43 1020.47 1020.43 1020.43 1020.39 1020.27 1020.07 1019.91 1019.79 1019.55 1019.47 1019.35 1019.39 1019.31 1019.19 1018.99 1018.87 1018.87 1018.79 1018.55 1018.15 1017.75 1017.31 1016.95 1016.71 1016.51 1016.35 1016.19 1016.19 1016.15 1015.99 1015.71 1015.43 1015.51 1015.51 1015.39 1015.15 1015.03 1014.83 1014.67 1014.63 1014.31 1014.27 1014.27 1014.47 1014.75 1014.95 1015.15 1015.23 1015.27 1015.67 1016.11 1015.83 1015.47 1015.39 1015.39 1015.59 1015.75 1015.87
1020.75 1020.79 1020.83 1020.87 1020.87 1020.87 1020.87 1020.87 1020.79 1020.59 1020.39 1020.27 1020.07 1019.99 1020.03 1019.99 1019.91 1019.79 1019.71 1019.67 1019.63 1019.63 1019.47 1019.27 1018.79 1018.35 1017.99 1017.67 1017.19 1017.03 1016.95 1016.87 1016.87 1016.83 1016.83 1016.51 1016.27 1016.31 1016.15 1015.79 1015.51 1015.51 1015.47 1015.31 1015.31 1014.91 1014.91 1014.75 1015.07 1015.35 1015.35 1015.47 1015.67 1015.71 1016.31 1016.27 1016.15 1016.03 1016.03 1016.07 1016.15 1016.23 1016.11
1020.99 1021.07 1021.15 1021.27 1021.31 1021.27 1021.27 1021.27 1021.23 1021.07 1020.87 1020.67 1020.59 1020.59 1020.43 1020.23 1020.23 1020.27 1020.31 1020.35 1020.31 1020.23 1020.19 1020.03 1019.59 1019.07 1018.67 1018.35 1017.95 1017.83 1017.75 1017.55 1017.51 1017.51 1017.43 1017.35 1017.27 1017.15 1016.95 1016.59 1016.27 1016.15 1016.11 1016.11 1015.91 1015.55 1015.31 1015.15 1015.55 1015.91 1015.95 1015.99 1016.19 1016.55 1016.95 1016.83 1016.43 1016.39 1016.35 1016.27 1016.27 1016.43 1016.55
1021.23 1021.31 1021.47 1021.63 1021.67 1021.75 1021.79 1021.83 1021.79 1021.55 1021.39 1021.15 1021.11 1020.91 1020.67 1020.59 1020.67 1020.71 1020.87 1020.83 1020.59 1020.55 1020.67 1020.59 1020.23 1019.91 1019.47 1018.99 1018.59 1018.47 1018.35 1018.23 1018.23 1018.31 1018.11 1018.15 1018.11 1018.07 1017.87 1017.59 1017.27 1016.91 1016.79 1016.79 1016.51 1016.35 1016.11 1015.75 1016.23 1016.67 1016.67 1016.59 1017.07 1017.43 1017.83 1017.43 1017.15 1016.99 1016.87 1016.67 1016.75 1016.51 1016.87
1021.51 1021.67 1021.83 1021.95 1022.03 1022.11 1022.19 1022.23 1022.19 1022.03 1021.87 1021.71 1021.55 1021.39 1021.23 1021.19 1021.11 1021.27 1021.23 1021.11 1021.11 1021.11 1021.11 1021.11 1020.95 1020.51 1020.03 1019.63 1019.27 1018.91 1018.79 1018.75 1019.11 1019.07 1018.87 1018.75 1018.75 1018.75 1018.63 1018.43 1018.23 1018.07 1017.63 1017.43 1017.39 1017.27 1017.11 1016.91 1016.99 1017.27 1017.07 1017.35 1017.63 1018.15 1018.19 1017.83 1017.87 1017.75 1017.75 1017.87 1017.99 1017.75 1017.95
1021.99 1022.07 1022.19 1022.31 1022.39 1022.47 1022.55 1022.63 1022.59 1022.47 1022.31 1022.19 1021.95 1021.87 1021.87 1021.91 1021.79 1021.87 1021.75 1021.63 1021.55 1021.59 1021.63 1021.47 1021.31 1020.99 1020.63 1020.31 1019.95 1019.59 1019.63 1019.87 1019.99 1019.75 1019.51 1019.51 1019.67 1019.75 1019.63 1019.51 1019.43 1019.03 1018.51 1018.39 1018.35 1018.23 1018.15 1018.11 1018.07 1018.03 1018.19 1018.35 1018.51 1018.63 1018.27 1018.15 1018.31 1018.11 1018.19 1018.39 1018.43 1018.31 1018.35
1022.39 1022.47 1022.55 1022.63 1022.75 1022.91 1022.99 1022.99 1022.95 1022.87 1022.75 1022.59 1022.39 1022.43 1022.47 1022.43 1022.39 1022.39 1022.31 1022.19 1022.07 1022.07 1021.99 1021.91 1021.75 1021.55 1021.31 1021.03 1020.83 1020.55 1020.43 1020.75 1020.63 1020.31 1020.03 1020.35 1020.47 1020.55 1020.59 1020.51 1020.47 1020.07 1019.43 1019.27 1019.07 1018.99 1018.99 1018.99 1018.95 1018.87 1019.27 1019.11 1019.07 1018.91 1018.83 1018.95 1018.95 1018.87 1018.95 1018.99 1018.95 1018.91 1019.03
1022.83 1022.91 1023.07 1023.19 1023.23 1023.39 1023.47 1023.35 1023.31 1023.19 1023.07 1022.91 1022.79 1022.87 1022.95 1022.91 1022.79 1022.83 1022.83 1022.87 1022.79 1022.63 1022.55 1022.47 1022.39 1022.19 1021.99 1021.75 1021.59 1021.43 1021.35 1021.31 1021.07 1020.79 1020.83 1021.19 1021.47 1021.51 1021.31 1021.15 1021.07 1020.63 1020.27 1020.07 1019.95 1019.87 1019.83 1019.71 1019.59 1019.83 1019.71 1019.59 1019.55 1019.47 1019.35 1019.43 1019.43 1019.43 1019.51 1019.59 1019.63 1019.83 1019.91
1023.23 1023.27 1023.39 1023.47 1023.63 1023.79 1023.79 1023.75 1023.63 1023.59 1023.47 1023.31 1023.27 1023.31 1023.51 1023.43 1023.31 1023.35 1023.47 1023.55 1023.51 1023.43 1023.19 1022.99 1022.91 1022.79 1022.67 1022.51 1022.31 1022.15 1021.99 1021.87 1021.59 1021.63 1021.59 1021.91 1022.11 1021.95 1021.83 1021.75 1021.59 1021.15 1020.83 1020.71 1020.67 1020.63 1020.59 1020.55 1020.67 1020.55 1020.35 1020.19 1020.07 1019.99 1019.95 1019.99 1020.03 1020.15 1020.19 1020.27 1020.39 1020.63 1020.79
Thickness
5670 5669 5669 5668 5668 5668 5668 5669 5670 5672 5672 5672 5672 5670 5669 5666 5663 5661 5659 5657 5655 5653 5651 5649 5646 5645 5644 5641 5639 5637 5635 5633 5631 5628 5628 5628 5626 5625 5627 5627 5626 5627 5630 5630 5628 5626 5625 5625 5627 5629 5631 5634 5634 5635 5635 5634 5633 5632 5632 5631 5630 5628 5627
5670 5668 5667 5667 5667 5666 5665 5665 5667 5668 5669 5669 5669 5667 5667 5665 5663 5661 5659 5657 5655 5652 5649 5646 5644 5642 5641 5639 5637 5635 5633 5633 5631 5629 5628 5628 5627 5626 5626 5626 5625 5624 5625 5627 5627 5626 5625 5625 5626 5627 5629 5630 5631 5631 5632 5632 5631 5631 5631 5630 5630 5628 5627
5668 5666 5666 5665 5664 5663 5663 5663 5663 5665 5665 5665 5666 5665 5664 5664 5662 5660 5658 5656 5654 5651 5647 5644 5641 5639 5637 5636 5634 5633 5632 5631 5631 5629 5628 5629 5628 5627 5626 5626 5624 5622 5622 5623 5625 5624 5624 5626 5627 5627 5628 5629 5629 5629 5630 5630 5630 5629 5629 5629 5629 5628 5627
5666 5664 5663 5661 5661 5660 5659 5659 5659 5661 5661 5661 5662 5662 5661 5661 5660 5658 5657 5655 5653 5650 5647 5642 5639 5636 5635 5633 5632 5631 5630 5629 5629 5629 5629 5630 5629 5627 5625 5625 5625 5624 5624 5625 5626 5626 5624 5625 5627 5626 5627 5628 5628 5628 5629 5629 5629 5628 5628 5628 5628 5627 5626
5664 5661 5659 5658 5656 5656 5655 5655 5655 5656 5657 5657 5657 5658 5658 5658 5656 5655 5654 5652 5651 5648 5644 5641 5638 5635 5632 5630 5629 5628 5628 5627 5627 5627 5628 5628 5628 5626 5624 5623 5624 5625 5626 5628 5629 5627 5626 5626 5627 5626 5626 5627 5626 5627 5628 5627 5626 5627 5627 5627 5626 5626 5626
5661 5658 5657 5656 5654 5653 5653 5653 5653 5652 5653 5654 5653 5654 5654 5654 5652 5651 5649 5648 5647 5644 5641 5638 5635 5633 5630 5628 5627 5626 5625 5625 5625 5624 5625 5625 5625 5625 5624 5623 5624 5624 5624 5627 5628 5627 5626 5625 5625 5624 5626 5628 5627 5626 5626 5626 5625 5625 5626 5627 5626 5625 5625
5658 5656 5654 5653 5651 5651 5651 5650 5650 5649 5650 5650 5651 5651 5652 5652 5650 5649 5647 5645 5643 5640 5638 5636 5633 5630 5628 5626 5624 5623 5623 5623 5622 5622 5623 5623 5623 5623 5624 5624 5625 5624 5624 5625 5627 5627 5626 5624 5624 5623 5623 5625 5625 5624 5624 5624 5624 5624 5625 5626 5626 5625 5623
5655 5653 5651 5650 5649 5648 5648 5648 5648 5648 5648 5648 5649 5649 5649 5649 5648 5647 5646 5643 5641 5639 5636 5634 5631 5628 5626 5623 5622 5621 5621 5621 5621 5621 5621 5623 5623 5624 5625 5625 5625 5625 5624 5625 5626 5627 5626 5626 5626 5625 5623 5622 5621 5621 5621 5622 5623 5624 5624 5624 5624 5624 5623
5652 5650 5649 5647 5646 5646 5646 5646 5646 5646 5646 5646 5647 5647 5647 5647 5646 5644 5643 5641 5640 5638 5635 5632 5629 5627 5624 5622 5620 5619 5619 5619 5620 5620 5620 5622 5623 5624 5626 5626 5625 5625 5624 5625 5625 5626 5626 5627 5627 5626 5625 5623 5621 5619 5618 5620 5621 5622 5624 5623 5622 5622 5623
5649 5647 5645 5644 5644 5645 5644 5644 5644 5644 5644 5644 5645 5645 5645 5644 5643 5642 5641 5639 5638 5636 5634 5631 5628 5625 5623 5621 5620 5618 5618 5619 5619 5619 5620 5622 5624 5625 5626 5625 5624 5623 5624 5625 5625 5625 5625 5626 5627 5626 5626 5624 5623 5620 5618 5618 5619 5620 5622 5623 5621 5620 5621
5645 5644 5643 5643 5642 5642 5642 5642 5642 5641 5641 5642 5642 5642 5643 5642 5642 5640 5639 5638 5637 5635 5633 5630 5627 5625 5623 5621 5620 5619 5618 5619 5618 5619 5621 5622 5624 5625 5625 5623 5622 5623 5623 5624 5625 5625 5625 5625 5626 5625 5625 5624 5623 5622 5621 5619 5617 5619 5621 5622 5622 5620 5620
5642 5642 5641 5641 5640 5640 5639 5638 5639 5638 5639 5639 5639 5640 5640 5640 5640 5638 5637 5636 5635 5633 5631 5629 5626 5624 5622 5620 5619 5618 5618 5618 5618 5619 5621 5622 5624 5624 5623 5622 5621 5622 5622 5623 5624 5624 5626 5626 5625 5625 5624 5623 5621 5620 5621 5619 5617 5619 5622 5622 5621 5620 5619
5640 5639 5639 5638 5638 5637 5636 5636 5636 5635 5636 5637 5637 5638 5637 5638 5638 5637 5637 5635 5634 5632 5630 5629 5626 5623 5622 5620 5620 5619 5617 5618 5618 5619 5620 5621 5623 5623 5623 5623 5622 5621 5622 5622 5623 5623 5625 5625 5625 5624 5623 5622 5620 5618 5618 5617 5616 5617 5619 5620 5618 5617 5618
5636 5636 5636 5635 5634 5633 5633 5632 5632 5632 5633 5633 5634 5635 5635 5636 5636 5636 5635 5634 5633 5632 5630 5628 5626 5624 5622 5621 5621 5620 5620 5619 5619 5620 5619 5620 5622 5622 5622 5623 5624 5623 5622 5622 5623 5623 5624 5624 5624 5623 5622 5620 5619 5618 5617 5615 5613 5614 5615 5617 5615 5614 5616
5633 5632 5632 5631 5629 5629 5629 5628 5628 5628 5629 5631 5632 5632 5632 5633 5633 5633 5634 5633 5632 5631 5629 5628 5627 5625 5623 5622 5622 5623 5622 5622 5622 5621 5620 5620 5622 5621 5621 5622 5624 5624 5623 5623 5623 5623 5623 5623 5623 5622 5621 5620 5617 5617 5616 5613 5611 5611 5611 5612 5611 5611 5613
5628 5627 5627 5626 5625 5624 5623 5624 5625 5625 5627 5628 5629 5629 5630 5629 5630 5630 5631 5631 5630 5630 5629 5628 5627 5626 5625 5624 5624 5624 5625 5624 5623 5622 5621 5621 5621 5620 5619 5621 5623 5623 5623 5622 5621 5622 5622 5622 5622 5620 5620 5620 5617 5615 5615 5613 5612 5610 5608 5609 5608 5608 5609
5622 5622 5621 5620 5619 5619 5619 5620 5621 5622 5623 5624 5625 5626 5625 5625 5625 5625 5626 5627 5627 5628 5627 5628 5627 5626 5625 5625 5625 5625 5626 5626 5624 5623 5622 5621 5620 5618 5618 5621 5622 5622 5621 5619 5619 5620 5620 5620 5620 5619 5619 5618 5616 5614 5614 5613 5612 5611 5609 5608 5607 5606 5607
5616 5616 5615 5614 5615 5615 5616 5617 5617 5619 5619 5620 5621 5621 5621 5620 5620 5620 5621 5621 5623 5623 5624 5625 5625 5625 5624 5624 5624 5625 5625 5625 5624 5623 5622 5621 5619 5618 5618 5618 5619 5619 5618 5617 5617 5617 5618 5618 5619 5619 5618 5617 5616 5614 5613 5612 5611 5611 5610 5608 5607 5606 5606
5611 5610 5610 5609 5610 5610 5611 5612 5612 5614 5614 5614 5615 5616 5616 5615 5615 5616 5616 5617 5618 5619 5619 5621 5621 5621 5621 5621 5621 5622 5622 5622 5622 5622 5620 5620 5618 5617 5617 5617 5616 5616 5616 5615 5615 5615 5616 5617 5617 5617 5616 5616 5615 5614 5612 5610 5610 5610 5610 5607 5605 5604 5603
5605 5604 5604 5604 5604 5605 5606 5606 5607 5607 5607 5609 5609 5610 5611 5611 5611 5612 5613 5614 5614 5615 5615 5616 5616 5616 5616 5617 5617 5618 5619 5619 5619 5619 5618 5616 5616 5615 5615 5614 5614 5614 5613 5612 5613 5613 5613 5614 5615 5615 5615 5614 5613 5611 5610 5609 5608 5608 5606 5603 5602 5601 5601
5599 5598 5598 5599 5599 5600 5600 5601 5601 5602 5602 5604 5604 5605 5606 5606 5607 5608 5609 5610 5610 5611 5612 5612 5612 5612 5612 5614 5615 5614 5616 5617 5616 5616 5615 5613 5612 5611 5611 5611 5611 5611 5611 5610 5610 5611 5611 5612 5613 5613 5613 5612 5611 5609 5608 5607 5605 5604 5603 5601 5600 5599 5598
5594 5593 5593 5594 5594 5595 5595 5595 5596 5596 5597 5598 5599 5600 5601 5602 5603 5604 5605 5606 5606 5607 5608 5608 5609 5610 5610 5611 5612 5612 5612 5614 5613 5613 5613 5612 5609 5608 5608 5609 5608 5608 5609 5609 5609 5609 5609 5611 5612 5611 5610 5609 5607 5606 5605 5604 5603 5602 5600 5599 5598 5596 5594
5589 5588 5588 5588 5589 5590 5590 5590 5590 5591 5592 5593 5594 5595 5596 5598 5598 5599 5600 5601 5601 5602 5602 5602 5604 5606 5607 5609 5609 5608 5607 5608 5608 5608 5608 5608 5606 5605 5605 5606 5606 5607 5608 5609 5608 5607 5608 5609 5610 5609 5607 5605 5605 5604 5602 5601 5600 5599 5598 5598 5596 5594 5593
5584 5583 5583 5583 5584 5584 5584 5584 5584 5585 5586 5587 5589 5590 5591 5592 5593 5594 5595 5594 5594 5595 5595 5595 5597 5600 5602 5602 5602 5601 5599 5599 5600 5599 5599 5600 5599 5600 5601 5600 5602 5603 5605 5607 5605 5603 5605 5607 5606 5606 5604 5603 5602 5602 5601 5599 5598 5596 5595 5595 5594 5593 5594
5578 5578 5577 5577 5578 5578 5578 5578 5578 5579 5580 5581 5583 5585 5585 5586 5587 5588 5588 5587 5588 5589 5589 5589 5591 5592 5594 5594 5594 5595 5593 5592 5592 5591 5591 5590 5590 5592 5595 5595 5596 5597 5599 5601 5601 5600 5600 5601 5601 5601 5600 5598 5597 5597 5598 5598 5597 5595 5594 5593 5592 5592 5594
5573 5573 5572 5572 5572 5572 5572 5572 5573 5573 5574 5575 5576 5578 5579 5580 5580 5580 5581 5581 5581 5582 5583 5583 5584 5586 5587 5587 5588 5588 5587 5586 5585 5585 5584 5583 5583 5585 5587 5589 5590 5590 5592 5594 5596 5596 5596 5595 5595 5595 5594 5592 5590 5590 5591 5593 5594 5595 5593 5592 5591 5590 5591
5567 5567 5567 5567 5567 5567 5566 5567 5567 5568 5569 5569 5571 5571 5572 5573 5573 5573 5573 5573 5574 5575 5575 5575 5577 5579 5580 5580 5581 5581 5581 5580 5579 5578 5578 5577 5577 5578 5579 5581 5582 5583 5584 5587 5589 5590 5589 5589 5588 5587 5585 5583 5582 5582 5584 5585 5587 5590 5591 5590 5589 5587 5587
5562 5562 5562 5562 5562 5561 5561 5561 5561 5562 5563 5563 5564 5564 5565 5565 5566 5566 5566 5566 5567 5567 5568 5568 5570 5572 5573 5574 5575 5575 5575 5575 5573 5572 5572 5573 5573 5572 5572 5574 5574 5575 5578 5579 5581 5583 5583 5582 5581 5579 5577 5575 5574 5575 5575 5576 5578 5581 5584 5584 5583 5582 5581
5557 5557 5556 5556 5555 5555 5555 5555 5555 5556 5557 5557 5558 5558 5558 5558 5558 5558 5558 5559 5559 5559 5560 5561 5562 5564 5565 5567 5568 5568 5568 5568 5567 5565 5565 5566 5568 5567 5566 5567 5568 5569 5571 5572 5572 5574 5575 5575 5574 5572 5571 5569 5568 5569 5567 5566 5569 5572 5574 5574 5573 5573 5573
5552 5551 5551 5550 5549 5548 5548 5548 5549 5550 5551 5552 5552 5552 5552 5552 5551 5551 5551 5551 5550 5550 5551 5552 5554 5556 5557 5559 5561 5562 5562 5561 5560 5558 5557 5559 5560 5559 5560 5562 5563 5564 5563 5563 5564 5565 5567 5568 5566 5565 5564 5563 5562 5562 5559 5559 5563 5564 5565 5565 5565 5565 5566
5547 5546 5545 5543 5543 5542 5542 5542 5542 5543 5545 5546 5546 5546 5546 5546 5546 5544 5543 5543 5543 5543 5543 5543 5546 5548 5549 5552 5553 5554 5554 5554 5553 5552 5551 5551 5550 5550 5552 5554 5556 5557 5556 5556 5556 5558 5560 5562 5559 5556 5556 5557 5555 5553 5549 5551 5555 5556 5557 5559 5560 5560 5560
5542 5541 5539 5538 5537 5536 5535 5535 5535 5536 5538 5539 5539 5540 5541 5541 5540 5538 5536 5536 5537 5537 5536 5535 5537 5540 5542 5544 5546 5546 5547 5547 5546 5545 5544 5544 5542 5542 5544 5545 5547 5549 5550 5550 5550 5551 5553 5554 5551 5548 5548 5549 5547 5542 5541 5543 5546 5548 5549 5550 5551 5552 5551
5536 5535 5533 5532 5531 5530 5529 5528 5529 5529 5531 5532 5533 5533 5534 5533 5533 5531 5530 5530 5531 5530 5529 5529 5530 5532 5535 5537 5539 5540 5541 5539 5537 5537 5538 5537 5536 5535 5536 5537 5538 5540 5542 5542 5542 5543 5543 5544 5542 5541 5542 5542 5538 5535 5536 5537 5538 5539 5540 5539 5539 5540 5541
5529 5528 5527 5526 5525 5524 5523 5522 5523 5523 5524 5525 5526 5527 5526 5526 5525 5524 5524 5525 5524 5523 5523 5523 5524 5526 5528 5530 5531 5532 5533 5529 5528 5530 5531 5530 5528 5526 5527 5527 5527 5530 5533 5534 5534 5535 5534 5534 5534 5534 5533 5532 5530 5530 5531 5531 5531 5531 5532 5530 5530 5532 5532
5523 5522 5521 5520 5519 5518 5517 5517 5517 5517 5517 5518 5520 5519 5518 5518 5518 5517 5517 5517 5517 5517 5517 5517 5518 5519 5520 5521 5522 5524 5523 5521 5520 5523 5524 5522 5520 5518 5518 5518 5518 5521 5524 5526 5526 5527 5526 5526 5526 5526 5524 5524 5524 5525 5525 5525 5524 5524 5524 5523 5523 5523 5523
5517 5516 5515 5514 5513 5512 5511 5511 5511 5510 5511 5512 5512 5512 5510 5510 5510 5510 5510 5509 5509 5509 5509 5510 5511 5511 5512 5513 5514 5514 5514 5513 5514 5516 5516 5513 5510 5510 5510 5511 5511 5513 5516 5517 5518 5518 5518 5519 5518 5517 5517 5518 5518 5519 5519 5518 5518 5518 5517 5516 5515 5514 5513
5511 5511 5510 5508 5506 5505 5504 5504 5505 5505 5505 5506 5506 5505 5503 5503 5503 5503 5501 5501 5500 5501 5501 5502 5503 5504 5504 5505 5506 5506 5507 5507 5507 5508 5507 5505 5503 5504 5504 5504 5505 5508 5509 5510 5509 5510 5511 5510 5510 5509 5510 5511 5511 5511 5512 5511 5510 5510 5509 5508 5507 5505 5503